Location: Unnamed
(24.6047°N, 120.9978°E)
Time: 22:33:52
(UTC+08:00)

Hubble Space Telescope - Pass Details

Date: 18 May 2023
Orbit: 482 x 484 km, 28.5° (Epoch: 12 November)

Event Time Altitude Azimuth Distance (km) Brightness Sun altitude
Rises 20:09:27 0° 285° (WNW) 2,525 5.5 -20.0°
Reaches altitude 10° 20:11:40 10° 290° (WNW) 1,648 4.4 -20.5°
Maximum altitude 20:15:23 57° 10° (N) 573 0.9 -21.2°
Enters shadow 20:15:50 52° 41° (NE) 603 0.9 -21.2°
